RH
72 81 85 85 85 90 95 87 89 93 92 81 77 72 66 63 66 67 73 79 84 87 88 88 89 85 86 87 86 87 87 88 85
73 82 88 89 87 93 94 89 91 94 87 73 73 67 62 58 60 65 75 84 84 86 86 88 86 87 90 91 88 83 84 85 85
78 83 89 91 91 91 98 91 91 98 89 72 68 63 60 58 60 68 78 84 88 84 84 86 86 89 88 87 89 88 91 90 83
82 84 86 90 90 92 97 91 90 97 89 71 65 58 59 56 63 72 82 80 87 86 83 84 88 90 88 89 91 92 87 84 84
86 86 87 89 88 88 88 88 90 98 81 70 63 57 56 60 63 69 83 85 85 87 84 84 87 92 89 88 88 85 87 86 84
96 92 95 88 84 82 89 83 92 99 74 69 60 52 53 58 60 71 80 82 83 85 84 84 87 89 88 89 87 87 88 86 85
97 95 94 91 82 78 88 87 90 92 78 68 54 61 54 57 64 77 81 83 85 85 83 84 84 90 86 86 87 88 88 87 87
92 93 94 95 82 89 90 84 86 77 77 73 61 57 56 60 66 80 82 83 86 87 83 83 86 86 87 87 88 87 89 91 91
100 92 98 96 90 86 85 82 84 68 69 70 59 60 58 59 68 82 81 82 84 83 88 86 86 87 87 89 90 91 91 91 92
99 99 97 94 90 81 84 82 80 68 66 64 62 62 60 61 70 82 82 81 83 83 85 87 86 87 88 90 90 91 92 92 93
86 97 98 94 88 77 78 79 75 71 69 66 63 62 62 63 77 80 82 82 82 84 83 86 87 86 88 90 91 92 93 94 95
90 94 98 99 89 75 75 76 71 69 68 68 67 66 67 66 83 82 82 82 83 83 85 86 86 87 87 90 91 94 95 95 96
92 95 96 100 91 80 86 78 74 68 68 67 68 70 70 69 78 84 81 83 82 83 84 88 86 86 86 88 92 94 96 96 96
100 92 96 99 98 92 87 79 74 69 67 66 68 68 70 70 74 80 81 83 83 84 83 88 88 87 86 88 91 94 96 96 94
91 89 98 97 98 97 90 81 72 68 66 65 68 69 69 70 70 72 82 85 85 85 83 86 87 90 89 88 91 93 95 94 94
99 100 94 99 93 100 90 84 75 68 66 70 78 80 76 75 73 69 75 81 83 84 84 89 85 86 90 91 92 93 93 93 91
90 91 97 98 97 97 96 89 82 72 74 80 84 90 86 83 74 72 71 73 80 83 86 88 80 81 86 90 92 93 91 89 88
96 92 91 96 98 99 100 89 82 80 82 82 64 80 72 81 84 81 76 74 78 82 84 83 82 80 82 84 89 89 92 88 85
88 96 91 94 96 93 98 99 87 84 84 74 59 55 54 71 87 88 82 81 77 80 84 87 87 86 84 85 87 76 81 79 82
98 98 100 94 96 89 96 99 94 86 83 74 71 58 60 54 57 77 85 82 85 82 81 86 90 89 84 86 80 74 63 61 49
Wind_Speed
18 17 18 17 17 16 15 15 16 17 17 14 14 13 13 10 10 12 14 15 14 15 16 16 16 17 18 17 18 17 17 17 16
20 19 20 19 18 16 16 15 15 16 14 13 13 12 12 8 9 11 13 15 15 15 16 16 16 16 17 18 18 18 17 17 17
23 22 22 21 20 16 15 14 13 11 14 12 12 11 11 9 9 11 13 15 15 15 15 15 15 16 17 17 17 18 18 17 17
26 25 24 22 20 17 16 15 13 12 12 11 11 13 12 8 9 10 11 14 15 15 14 14 15 16 16 17 17 17 17 16 15
28 28 27 25 21 17 15 14 13 13 11 12 12 14 12 9 9 10 12 13 14 14 14 13 14 15 16 16 16 16 16 16 15
27 28 27 27 23 19 16 15 16 15 14 13 12 14 7 10 8 11 13 13 13 13 13 13 13 14 15 15 15 15 15 15 14
31 28 29 30 25 21 19 18 17 13 15 15 16 5 9 8 9 12 13 12 12 13 13 12 12 13 14 14 14 13 14 13 13
32 30 31 28 26 22 21 19 16 14 14 16 15 9 10 9 10 14 14 12 12 12 12 11 11 12 12 12 13 13 12 12 11
13 30 32 27 28 23 24 22 18 15 15 15 13 13 11 10 11 15 14 13 12 12 11 11 11 11 11 11 11 11 11 11 10
30 21 29 28 30 26 26 22 20 16 15 17 14 14 12 12 12 14 14 13 13 12 11 11 10 10 10 10 9 9 9 9 9
35 32 30 29 32 28 26 25 22 19 17 16 16 15 13 13 13 15 16 14 13 12 12 11 10 10 9 9 8 8 8 7 7
29 36 25 25 35 31 26 24 20 19 18 17 16 15 14 14 13 16 16 14 13 12 11 11 10 9 9 8 7 7 7 6 6
25 28 35 23 33 33 31 26 23 21 19 19 18 16 15 14 14 15 15 14 14 13 11 10 10 9 8 7 7 6 6 5 5
14 28 32 32 26 34 35 28 27 23 21 19 18 16 15 15 15 15 15 15 14 12 13 11 10 10 9 8 7 7 6 5 5
24 29 27 31 23 37 32 31 27 26 23 19 17 15 14 15 14 16 15 16 15 14 14 12 11 10 9 9 8 8 7 6 4
20 15 24 28 26 14 41 33 32 26 25 21 15 11 14 16 15 16 17 17 17 16 16 14 13 15 12 11 10 9 7 6 5
19 22 25 28 29 29 35 34 30 29 32 21 15 2 3 13 18 17 17 16 17 17 17 16 14 12 15 14 14 10 9 7 5
14 19 23 28 24 27 21 38 35 32 31 32 10 5 6 13 14 18 18 17 19 18 19 17 17 16 14 15 16 15 12 8 6
14 16 20 26 26 29 31 30 41 38 36 29 22 10 11 5 4 15 25 19 20 20 20 21 21 20 19 16 15 17 17 13 9
16 16 15 22 24 27 32 27 32 40 40 35 33 20 13 15 4 4 15 27 23 22 22 22 23 24 24 21 21 20 18 16 12
Wind_Direction
198 188 180 171 167 168 153 151 146 141 141 137 136 123 104 90 99 102 101 100 101 98 96 99 100 98 94 90 88 84 81 82 81
200 191 187 183 179 176 162 163 152 150 144 147 145 131 111 113 108 106 106 109 107 105 103 102 100 99 98 96 94 92 87 82 79
202 196 193 190 187 182 167 165 162 158 149 157 153 140 117 112 111 109 108 115 112 110 107 105 103 101 98 98 95 94 92 88 87
204 200 199 197 196 189 182 175 173 162 160 162 154 137 126 125 122 116 117 119 115 113 113 110 107 104 102 99 98 94 93 92 88
208 202 200 200 201 199 195 181 170 164 166 162 153 140 124 128 127 122 127 125 120 118 117 115 109 106 105 101 100 98 93 93 89
209 203 201 202 197 191 180 181 173 169 168 164 154 141 142 138 133 127 138 132 129 122 119 115 112 110 109 106 104 102 101 97 93
209 202 203 200 197 187 176 181 182 170 164 162 153 154 159 146 137 140 140 138 134 127 123 121 117 117 112 111 107 104 101 102 99
209 204 199 195 196 178 175 188 182 177 169 171 165 168 161 151 142 146 149 147 138 133 128 125 122 119 117 113 113 113 108 104 98
315 202 190 186 185 183 181 187 186 187 179 176 178 171 166 158 150 155 157 153 144 137 134 131 126 122 118 116 114 114 112 107 105
337 209 187 189 184 186 182 185 187 189 185 180 180 175 170 161 152 160 164 155 152 148 142 138 134 130 125 121 118 117 114 109 105
343 358 190 194 184 188 183 184 188 185 186 184 183 179 174 166 162 171 170 163 162 155 155 149 145 141 137 133 129 125 115 105 92
348 334 333 218 186 186 185 177 184 183 181 181 183 181 177 172 161 173 174 171 165 167 162 158 153 149 146 142 137 129 120 115 105
340 323 331 337 183 182 174 178 178 182 182 178 179 180 180 175 168 173 177 179 178 175 176 167 163 161 157 158 152 145 140 129 117
318 325 323 333 196 181 177 178 179 180 182 180 175 179 180 180 173 177 181 186 179 184 186 177 175 175 172 173 171 167 163 153 145
297 303 305 324 347 182 179 177 182 178 175 172 171 177 182 186 185 181 186 189 188 188 192 189 188 187 186 186 189 186 179 172 164
311 306 307 310 324 260 181 178 175 177 170 155 153 167 190 196 199 192 188 192 199 198 198 194 194 205 198 199 200 199 193 188 181
281 288 303 315 317 334 186 180 175 174 165 162 133 140 234 209 204 204 199 198 194 199 200 198 199 200 206 204 206 203 203 201 196
284 287 289 292 302 298 250 182 178 164 173 168 155 158 208 165 214 199 205 203 200 202 202 203 203 200 200 210 217 207 204 205 204
284 275 280 283 296 299 309 208 181 172 176 180 206 192 157 178 162 217 214 211 210 206 206 205 205 205 202 215 213 216 212 203 202
299 288 271 276 284 287 295 234 199 185 180 189 191 197 171 182 156 171 192 215 218 214 211 208 209 210 210 208 211 219 217 222 228